Regional Weather Roundup
Issued by NWS

Home | Current Version | Previous Version | Graphics & Text | Print | Product List | Glossary On
Versions: 1 2 3 4 5 6 7 8 9 10 11 12 13 14 15 16 17 18 19 20 21 22 23 24 25 26 27 28 29 30 31 32 33 34 35 36 37 38 39 40 41 42 43 44 45 46 47 48 49 50
000
ASUS43 KBIS 161020
RWRND

NORTH DAKOTA REGIONAL WEATHER ROUNDUP
NATIONAL WEATHER SERVICE BISMARCK ND
500 AM CDT WED APR 16 2014

NOTE: "FAIR" INDICATES FEW OR NO CLOUDS BELOW 12,000 FEET WITH NO
SIGNIFICANT WEATHER AND/OR OBSTRUCTIONS TO VISIBILITY.


NDZ001>003-009>011-017-161100-
NORTHWEST NORTH DAKOTA

CITY           SKY/WX    TMP DP  RH WIND       PRES   REMARKS
WILLISTON        N/A    N/A N/A N/A MISG      29.91R
MINOT          LGT SNOW  24  20  84 NE13      29.95R FOG     WCI  12
MINOT AFB      LGT SNOW  23  23  98 E16       29.96R VSB 3/4 WCI  10
$$

NDZ018>021-031>035-040>046-161100-
SOUTHWEST NORTH DAKOTA

CITY           SKY/WX    TMP DP  RH WIND       PRES   REMARKS
BISMARCK       CLOUDY    28  20  71 E18G24    29.84R WCI  15
DICKINSON      PTCLDY    24  16  71 NE10      29.78R WCI  14
GARRISON         N/A     25  21  85 E18G25    29.89R WCI  11
HETTINGER ARPT MOCLDY    26  17  68 NE17      29.73R WCI  13
$$

NDZ004>008-012>016-024-026-027-054-161100-
NORTHEAST NORTH DAKOTA

CITY           SKY/WX    TMP DP  RH WIND       PRES   REMARKS
GRAND FORKS    CLOUDY    28  14  55 E10       30.00R WCI  19
GRND FRKS AFB  CLOUDY    28  14  55 E9        30.04R WCI  19
DEVILS LAKE    CLOUDY    25  14  63 E17       29.99R WCI  11
$$

NDZ022-023-025-028>030-036>039-047>053-161100-
SOUTHEAST NORTH DAKOTA

CITY           SKY/WX    TMP DP  RH WIND       PRES   REMARKS
FARGO          LGT SNOW  28  24  85 E13       29.96S FOG     WCI  17
JAMESTOWN      CLOUDY    27  24  89 E22G30    29.89R WCI  13
$$




USA.gov is the U.S. government's official web portal to all federal, state and local government web resources and services.